Hourly Data Report for September 02, 2017

All times are specified in Local Standard Time (LST). Add 1 hour to adjust for Daylight Saving Time where and when it is observed.

CLYDE RIVER A
NUNAVUT

70°29'09.000" N
68°31'01.000" W
26.50 m
2400804
71090
YCY

Related Data

No related data is available for this station

Download Data

Hourly Data (September 2017)
Hourly Data Report for September 2, 2017
Temp Definition
°C
Dew Point Temp Definition
°C
Rel Hum Definition
%
Wind Dir Definition
10's deg

Wind Spd Definition
km/h
Visibility Definition
km
Stn Press Definition
kPa
Hmdx Definition


Wind Chill Definition


Weather Definition


TIME
00:00 Legend Double Dagger 3.1 2.5 96 33 28 3.2 99.92     Rain,Fog
01:00 Legend Double Dagger 3.3 2.3 93 33 30 11.3 99.97     LegendNANA
02:00 Legend Double Dagger 3.2 2.3 94 33 35 16.1 100.02     LegendNANA
03:00 Legend Double Dagger 2.9 2.0 94 33 37 4.8 100.10     Rain,Fog
04:00 Legend Double Dagger 2.7 1.0 88 33 32 16.1 100.19     LegendNANA
05:00 Legend Double Dagger 2.8 1.0 88 33 28 16.1 100.27     LegendNANA
06:00 Legend Double Dagger 2.7 0.2 84 33 26 16.1 100.32     LegendNANA
07:00 Legend Double Dagger 2.9 0.6 85 31 18 16.1 100.37     LegendNANA
08:00 Legend Double Dagger 3.0 1.0 87 32 28 16.1 100.41     LegendNANA
09:00 Legend Double Dagger 3.1 0.2 81 33 32 16.1 100.45     LegendNANA
10:00 Legend Double Dagger 3.4 -0.1 78 33 30 16.1 100.44     LegendNANA
11:00 Legend Double Dagger 3.3 -0.1 78 34 30 16.1 100.46     LegendNANA
12:00 Legend Double Dagger 3.3 0.6 82 34 26 16.1 100.49     LegendNANA
13:00 Legend Double Dagger 3.4 -1.0 73 33 32 16.1 100.50     LegendNANA
14:00 Legend Double Dagger 3.7 -1.6 68 34 32 16.1 100.53     LegendNANA
15:00 Legend Double Dagger 3.5 -1.1 72 34 32 16.1 100.59     LegendNANA
16:00 Legend Double Dagger 3.3 -1.1 73 33 22 16.1 100.64     LegendNANA
17:00 Legend Double Dagger 3.0 -2.4 68 34 24 16.1 100.67     LegendNANA
18:00 Legend Double Dagger 2.7 -2.1 71 34 18 16.1 100.69     LegendNANA
19:00 Legend Double Dagger 2.3 -1.6 75 34 17 16.1 100.71     LegendNANA
20:00 Legend Double Dagger 2.1 -1.7 76 1 18 16.1 100.72     LegendNANA
21:00 Legend Double Dagger 1.8 -2.2 75 34 15 16.1 100.74     LegendNANA
22:00 Legend Double Dagger 1.7 -1.9 77 32 11 16.1 100.76     LegendNANA
23:00 Legend Double Dagger 1.6 -1.5 80 25 8 16.1 100.74     LegendNANA

Notes on Data Quality.

Legend

  • E = Estimated
  • M = Missing
  • NA = Not Available
  • ‡ = Partner data that is not subject to review by the National Climate Archives
Date modified: